�N����,����,�~����,�C��,���x,�C��,����,���ϕ���,�ő�u�ԕ���,�ő厞����,���˗�,�I�_���x,�n�����x,�ő啗���N��,DTYPE
"18/05/01","00:10",0.0,12.9,93.0,1011.9,291.0,1.2,1.8,313.4,0.00,11.8,15.7,"00:08:40",1
"18/05/01","00:20",0.0,12.9,92.8,1011.9,315.3,1.1,1.8,319.5,0.00,11.8,15.8,"00:12:46",1
"18/05/01","00:30",0.0,12.7,92.9,1011.9,288.1,1.2,1.9,316.2,0.00,11.6,15.6,"00:28:00",1
"18/05/01","00:40",0.0,12.4,92.5,1012.1,322.8,1.3,1.7,329.9,0.00,11.3,15.4,"00:32:28",1
"18/05/01","00:50",0.0,12.3,94.2,1012.3,301.9,1.1,1.3,311.4,0.00,11.4,15.6,"00:40:08",1
"18/05/01","01:00",0.0,12.1,93.2,1012.3,321.6,1.5,2.1,325.3,0.00,11.1,15.5,"00:59:36",1
"18/05/01","01:10",0.0,11.9,94.4,1012.3,325.6,2.0,2.5,322.8,0.00,11.1,15.4,"01:04:42",1
"18/05/01","01:20",0.0,11.9,94.7,1012.1,316.7,1.5,1.7,321.6,0.00,11.1,15.6,"01:13:18",1
"18/05/01","01:30",0.0,11.7,95.0,1012.3,312.1,1.7,2.1,321.0,0.00,11.0,15.1,"01:28:02",1
"18/05/01","01:40",0.0,11.9,96.1,1012.6,299.0,1.3,1.7,325.8,0.00,11.3,15.2,"01:30:24",1
"18/05/01","01:50",0.0,12.0,95.7,1011.9,288.9,1.2,1.6,303.1,0.00,11.4,14.8,"01:43:26",1
"18/05/01","02:00",0.0,12.2,95.4,1011.9,296.1,1.6,2.2,285.1,0.00,11.5,15.2,"01:52:24",1
"18/05/01","02:10",0.0,12.1,95.4,1011.9,321.5,1.6,2.1,320.5,0.00,11.4,15.2,"02:04:44",1
"18/05/01","02:20",0.0,12.0,95.6,1012.1,314.5,1.6,1.9,321.9,0.00,11.4,14.9,"02:13:54",1
"18/05/01","02:30",0.0,11.9,96.0,1012.3,311.7,1.5,1.8,321.4,0.00,11.3,15.0,"02:22:10",1
"18/05/01","02:40",0.0,11.7,95.6,1012.1,311.2,1.2,2.0,324.7,0.00,11.1,14.9,"02:39:24",1
"18/05/01","02:50",0.0,11.6,95.9,1011.9,311.2,1.5,2.5,314.6,0.00,11.0,14.8,"02:49:24",1
"18/05/01","03:00",0.0,11.5,95.7,1012.1,327.1,1.7,2.4,317.3,0.00,10.9,14.8,"02:50:16",1
"18/05/01","03:10",0.0,11.6,97.0,1012.1,319.6,1.7,2.2,325.5,0.00,11.2,14.9,"03:00:16",1
"18/05/01","03:20",0.0,11.4,95.9,1011.9,302.8,1.0,1.4,329.0,0.00,10.8,14.8,"03:10:48",1
"18/05/01","03:30",0.0,11.2,96.5,1012.3,306.3,1.1,1.9,318.4,0.00,10.7,14.9,"03:24:32",1
"18/05/01","03:40",0.0,11.2,96.8,1012.3,311.2,1.6,2.2,322.5,0.00,10.8,14.8,"03:37:52",1
"18/05/01","03:50",0.0,11.2,97.1,1012.6,311.1,1.6,2.2,319.3,0.00,10.8,14.7,"03:42:58",1
"18/05/01","04:00",0.0,11.2,97.3,1012.8,305.6,1.2,1.4,324.4,0.00,10.8,14.8,"03:50:56",1
"18/05/01","04:10",0.0,11.1,96.7,1012.6,317.7,1.8,2.5,323.2,0.00,10.6,14.8,"04:05:30",1
"18/05/01","04:20",0.0,10.9,97.6,1012.6,315.8,1.8,2.1,321.6,0.00,10.6,14.5,"04:10:40",1
"18/05/01","04:30",0.0,11.1,97.9,1012.6,309.9,1.5,2.0,320.0,0.00,10.8,14.7,"04:20:24",1
"18/05/01","04:40",0.0,11.1,97.3,1012.6,294.6,1.1,1.6,317.9,0.00,10.7,14.6,"04:34:16",1
"18/05/01","04:50",0.0,11.2,97.7,1012.6,310.8,1.2,1.6,306.9,0.00,10.9,14.5,"04:41:54",1
"18/05/01","05:00",0.0,11.0,97.3,1012.8,312.8,1.6,2.0,319.9,0.00,10.6,14.6,"04:57:00",1
"18/05/01","05:10",0.0,10.9,97.6,1012.8,314.1,1.5,1.8,321.4,0.00,10.6,14.4,"05:07:02",1
"18/05/01","05:20",0.0,10.9,97.1,1012.3,316.1,1.5,2.0,321.6,0.00,10.5,14.6,"05:10:16",1
"18/05/01","05:30",0.0,11.0,97.9,1012.6,313.4,1.5,1.8,316.7,0.00,10.7,14.5,"05:27:04",1
"18/05/01","05:40",0.0,10.9,97.4,1012.8,304.9,1.0,1.6,314.2,0.00,10.5,14.5,"05:30:40",1
"18/05/01","05:50",0.0,11.0,98.0,1012.8,309.9,1.5,2.0,324.7,0.00,10.7,14.6,"05:46:32",1
"18/05/01","06:00",0.0,11.5,97.7,1012.8,316.6,1.7,2.1,322.7,0.00,11.2,14.3,"05:57:20",1
"18/05/01","06:10",0.0,11.9,98.2,1013.0,322.2,1.3,1.9,321.2,0.01,11.7,14.0,"06:01:20",1
"18/05/01","06:20",0.0,12.6,97.3,1013.0,326.3,1.1,1.7,323.9,0.02,12.2,14.4,"06:17:04",1
"18/05/01","06:30",0.0,13.1,97.4,1012.8,322.7,0.8,1.1,314.0,0.03,12.7,14.3,"06:20:48",1
"18/05/01","06:40",0.0,13.7,96.9,1012.8,334.2,0.8,1.2,319.5,0.04,13.3,14.3,"06:33:04",1
"18/05/01","06:50",0.0,14.4,95.9,1013.0,320.2,0.8,1.1,320.5,0.05,13.8,14.4,"06:40:40",1
"18/05/01","07:00",0.0,14.9,94.9,1013.3,338.0,0.2,0.6,306.9,0.07,14.1,14.5,"06:57:52",1
"18/05/01","07:10",0.0,15.6,91.0,1013.3,90.1,0.1,0.5,86.3,0.09,14.2,14.5,"07:06:16",1
"18/05/01","07:20",0.0,16.2,88.2,1013.5,94.1,0.2,0.8,121.9,0.12,14.3,14.7,"07:16:56",1
"18/05/01","07:30",0.0,16.6,86.1,1013.3,237.5,0.2,0.6,116.0,0.14,14.3,14.7,"07:24:00",1
"18/05/01","07:40",0.0,17.2,86.1,1013.5,225.0,0.3,0.8,204.2,0.17,14.9,14.9,"07:31:20",1
"18/05/01","07:50",0.0,17.7,82.5,1013.8,116.5,0.2,0.8,137.5,0.20,14.7,15.0,"07:42:16",1
"18/05/01","08:00",0.0,18.3,79.4,1013.8,108.5,0.5,1.2,105.9,0.22,14.7,14.8,"07:51:44",1
"18/05/01","08:10",0.0,18.7,78.9,1014.0,248.9,0.5,1.2,190.9,0.24,15.0,15.3,"08:03:28",1
"18/05/01","08:20",0.0,19.2,78.0,1013.8,23.0,0.6,1.7,117.4,0.26,15.3,15.5,"08:19:36",1
"18/05/01","08:30",0.0,19.4,76.7,1013.5,55.7,0.7,2.2,65.3,0.29,15.2,15.6,"08:22:24",1
"18/05/01","08:40",0.0,19.5,74.9,1013.3,125.8,0.8,1.8,130.9,0.31,15.0,15.7,"08:36:24",1
"18/05/01","08:50",0.0,19.9,74.9,1013.0,178.4,0.8,2.1,115.8,0.34,15.4,16.0,"08:46:56",1
"18/05/01","09:00",0.0,20.2,74.3,1012.8,213.6,0.8,2.2,179.2,0.36,15.5,16.2,"08:55:44",1
"18/05/01","09:10",0.0,20.8,71.8,1012.8,52.4,0.6,2.0,43.5,0.39,15.6,16.5,"09:05:28",1
"18/05/01","09:20",0.0,20.8,70.6,1012.6,170.6,1.0,2.8,228.1,0.39,15.3,16.7,"09:15:12",1
"18/05/01","09:30",0.0,21.9,71.8,1012.1,126.5,1.1,2.4,206.7,0.42,16.6,16.8,"09:24:40",1
"18/05/01","09:40",0.0,21.6,69.1,1011.4,145.7,1.1,2.1,107.8,0.41,15.7,17.2,"09:37:44",1
"18/05/01","09:50",0.0,22.1,69.2,1011.6,121.5,1.2,3.1,126.6,0.47,16.2,17.3,"09:44:16",1
"18/05/01","10:00",0.0,22.4,69.4,1010.9,85.3,1.1,2.2,107.0,0.46,16.6,17.7,"09:51:44",1
"18/05/01","10:10",0.0,22.5,66.8,1010.9,161.0,1.5,3.2,186.4,0.49,16.1,18.1,"10:02:00",1
"18/05/01","10:20",0.0,23.2,66.3,1010.9,181.2,1.2,2.2,353.7,0.48,16.6,18.5,"10:13:04",1
"18/05/01","10:30",0.0,23.1,65.0,1011.2,142.2,1.1,2.7,164.7,0.44,16.2,18.5,"10:20:32",1
"18/05/01","10:40",0.0,23.8,63.2,1011.2,201.3,1.3,3.1,188.9,0.51,16.4,18.7,"10:35:04",1
"18/05/01","10:50",0.0,24.1,63.4,1010.9,132.8,1.2,3.1,131.2,0.47,16.8,19.2,"10:44:56",1
"18/05/01","11:00",0.0,24.9,62.3,1010.4,128.6,1.6,3.2,110.8,0.53,17.2,19.4,"10:50:32",1
"18/05/01","11:10",0.0,25.4,61.0,1010.7,143.6,1.6,4.1,132.8,0.55,17.4,19.6,"11:05:04",1
"18/05/01","11:20",0.0,25.3,60.4,1010.4,147.1,2.0,3.7,184.5,0.55,17.1,19.9,"11:19:20",1
"18/05/01","11:30",0.0,25.5,57.6,1010.0,165.9,2.0,3.7,194.9,0.57,16.6,20.1,"11:28:16",1
"18/05/01","11:40",0.0,25.0,55.9,1010.2,155.5,1.8,3.7,127.5,0.51,15.6,20.4,"11:36:40",1
"18/05/01","11:50",0.0,25.2,56.0,1009.7,153.8,2.1,4.8,156.5,0.55,15.8,20.7,"11:49:28",1
"18/05/01","12:00",0.0,25.7,54.8,1009.5,142.6,2.3,4.7,136.5,0.60,16.0,20.7,"11:51:44",1
"18/05/01","12:10",0.0,25.9,55.2,1009.5,132.1,1.7,3.3,109.9,0.57,16.3,21.0,"12:07:36",1
"18/05/01","12:20",0.0,26.0,53.3,1009.3,153.8,1.8,3.9,115.2,0.58,15.8,21.3,"12:12:08",1
"18/05/01","12:30",0.0,25.9,54.6,1009.3,158.6,2.5,5.2,152.9,0.51,16.1,21.5,"12:25:28",1
"18/05/01","12:40",0.0,26.1,56.0,1008.8,159.4,2.5,4.7,200.6,0.53,16.7,21.8,"12:35:28",1
"18/05/01","12:50",0.0,26.4,52.5,1008.8,148.2,2.5,5.2,140.0,0.58,15.9,21.7,"12:48:32",1
"18/05/01","13:00",0.0,25.7,53.5,1008.6,169.6,2.5,4.1,191.9,0.42,15.6,22.1,"12:50:24",1
"18/05/01","13:10",0.0,26.5,53.1,1008.8,155.5,1.6,3.5,171.1,0.59,16.2,22.3,"13:08:08",1
"18/05/01","13:20",0.0,26.8,50.7,1009.0,163.4,2.2,5.1,196.5,0.54,15.8,22.4,"13:19:52",1
"18/05/01","13:30",0.0,27.2,49.9,1009.0,172.3,2.1,4.8,125.0,0.57,15.9,22.4,"13:29:36",1
"18/05/01","13:40",0.0,27.2,48.4,1008.8,164.7,2.1,4.2,153.8,0.55,15.4,22.5,"13:31:04",1
"18/05/01","13:50",0.0,27.4,48.9,1008.8,162.8,2.1,3.7,132.2,0.53,15.8,22.7,"13:42:24",1
"18/05/01","14:00",0.0,27.6,46.4,1008.6,138.0,2.0,4.3,194.6,0.51,15.1,22.6,"13:50:16",1
"18/05/01","14:10",0.0,27.5,45.3,1008.8,162.8,1.7,3.6,168.0,0.51,14.7,22.7,"14:01:52",1
"18/05/01","14:20",0.0,27.2,46.0,1008.3,176.6,2.3,4.3,187.8,0.48,14.6,22.7,"14:10:40",1
"18/05/01","14:30",0.0,27.8,44.8,1008.3,133.8,1.1,3.3,130.7,0.48,14.8,22.7,"14:20:24",1
"18/05/01","14:40",0.0,27.7,42.9,1008.3,106.0,1.5,3.2,112.5,0.45,14.0,22.5,"14:32:16",1
"18/05/01","14:50",0.0,27.9,44.1,1008.3,161.5,1.1,2.5,142.3,0.43,14.6,22.7,"14:40:16",1
"18/05/01","15:00",0.0,27.8,42.5,1008.1,178.2,2.0,4.5,203.6,0.42,13.9,22.8,"14:52:40",1
"18/05/01","15:10",0.0,27.9,39.6,1008.1,310.0,1.1,3.1,341.3,0.39,12.9,22.8,"15:09:20",1
"18/05/01","15:20",0.0,28.4,35.0,1007.8,6.7,0.7,2.2,178.7,0.37,11.5,22.8,"15:15:36",1
"18/05/01","15:30",0.0,28.2,37.0,1007.6,115.4,1.3,3.5,348.5,0.35,12.2,22.8,"15:20:24",1
"18/05/01","15:40",0.0,28.4,38.4,1007.4,148.1,1.6,3.9,180.8,0.33,12.9,22.9,"15:30:02",1
"18/05/01","15:50",0.0,29.0,35.0,1006.9,195.7,1.2,3.6,171.7,0.31,12.0,23.1,"15:40:08",1
"18/05/01","16:00",0.0,28.8,32.9,1006.7,160.6,1.6,3.4,172.9,0.29,10.9,22.8,"15:50:16",1
"18/05/01","16:10",0.0,28.5,32.8,1006.7,181.3,1.7,4.1,144.3,0.27,10.6,22.9,"16:00:08",1
"18/05/01","16:20",0.0,28.8,32.2,1006.7,221.2,1.3,3.1,202.4,0.24,10.6,22.7,"16:19:04",1
"18/05/01","16:30",0.0,28.2,33.6,1006.4,167.3,2.0,3.2,196.6,0.22,10.7,22.9,"16:28:32",1
"18/05/01","16:40",0.0,28.0,36.0,1006.0,175.6,2.3,6.0,151.2,0.20,11.6,22.5,"16:32:24",1
"18/05/01","16:50",0.0,28.0,36.4,1006.0,187.5,2.0,3.4,188.9,0.17,11.8,22.5,"16:42:24",1
"18/05/01","17:00",0.0,27.8,37.5,1006.0,189.1,2.1,4.2,234.0,0.14,12.0,22.4,"16:59:20",1
"18/05/01","17:10",0.0,27.5,36.8,1005.5,205.4,2.7,4.4,208.1,0.11,11.5,22.6,"17:00:40",1
"18/05/01","17:20",0.0,27.1,37.4,1005.7,197.9,2.5,4.1,185.5,0.07,11.4,22.4,"17:14:40",1
"18/05/01","17:30",0.0,26.7,38.8,1006.2,208.1,1.8,3.7,228.1,0.05,11.6,21.9,"17:22:00",1
"18/05/01","17:40",0.0,26.7,38.8,1006.2,233.2,1.8,3.1,230.4,0.05,11.6,22.1,"17:30:48",1
"18/05/01","17:50",0.0,26.7,39.7,1006.2,247.7,1.1,2.8,252.0,0.04,11.9,22.0,"17:49:20",1
"18/05/01","18:00",0.0,26.4,41.5,1006.2,256.1,1.2,3.4,234.8,0.02,12.3,21.9,"17:54:40",1
"18/05/01","18:10",0.0,26.0,42.7,1006.4,268.5,1.2,2.9,247.3,0.01,12.4,21.6,"18:00:48",1
"18/05/01","18:20",0.0,25.5,42.8,1006.7,271.2,1.1,2.7,243.9,0.00,12.0,21.6,"18:13:20",1
"18/05/01","18:30",0.0,25.1,43.1,1006.9,276.2,1.3,3.6,236.7,0.00,11.7,21.5,"18:28:08",1
"18/05/01","18:40",0.0,25.0,41.1,1006.9,290.2,1.2,2.6,320.3,0.00,10.9,21.4,"18:32:48",1
"18/05/01","18:50",0.0,24.1,47.2,1007.1,329.8,1.6,3.9,342.2,0.00,12.2,21.2,"18:47:12",1
"18/05/01","19:00",0.0,23.0,51.1,1007.6,313.3,1.2,2.5,342.2,0.00,12.4,20.8,"18:52:24",1
"18/05/01","19:10",0.0,22.0,54.7,1007.6,300.9,0.7,1.1,321.8,0.00,12.5,20.8,"19:03:36",1
"18/05/01","19:20",0.0,21.7,55.7,1007.8,300.7,1.0,1.7,289.3,0.00,12.5,20.7,"19:13:20",1
"18/05/01","19:30",0.0,21.6,57.0,1007.8,351.7,1.2,2.1,347.4,0.00,12.8,20.4,"19:24:56",1
"18/05/01","19:40",0.0,20.7,60.4,1008.1,328.7,1.6,2.6,339.1,0.00,12.8,20.5,"19:35:04",1
"18/05/01","19:50",0.0,20.2,61.9,1008.1,303.2,0.7,1.3,335.2,0.00,12.7,20.1,"19:40:02",1
"18/05/01","20:00",0.0,20.2,59.2,1008.6,331.7,0.8,1.4,337.3,0.00,12.0,20.0,"19:57:28",1
"18/05/01","20:10",0.0,20.1,58.8,1009.0,316.4,0.7,1.2,330.6,0.00,11.8,20.0,"20:09:36",1
"18/05/01","20:20",0.0,20.2,55.2,1008.8,317.3,1.3,2.6,326.0,0.00,11.0,19.7,"20:16:16",1
"18/05/01","20:30",0.0,20.4,56.0,1009.3,339.7,1.6,2.7,339.2,0.00,11.4,19.7,"20:28:56",1
"18/05/01","20:40",0.0,20.2,56.7,1009.3,348.9,1.3,2.2,339.2,0.00,11.4,19.6,"20:35:20",1
"18/05/01","20:50",0.0,19.8,59.1,1009.7,333.8,1.5,2.7,325.7,0.00,11.6,19.6,"20:41:12",1
"18/05/01","21:00",0.0,20.2,57.5,1010.0,327.8,2.0,3.6,345.1,0.00,11.6,19.5,"20:58:48",1
"18/05/01","21:10",0.0,20.0,57.8,1009.7,322.8,1.1,3.2,327.3,0.00,11.5,19.2,"21:00:16",1
"18/05/01","21:20",0.0,20.0,58.9,1010.0,347.8,0.7,1.7,335.0,0.00,11.8,19.2,"21:10:08",1
"18/05/01","21:30",0.0,19.8,59.5,1010.0,324.9,0.7,1.4,317.1,0.00,11.7,19.2,"21:25:28",1
"18/05/01","21:40",0.0,19.6,58.5,1010.2,291.6,0.7,1.6,336.9,0.00,11.3,19.1,"21:35:44",1
"18/05/01","21:50",0.0,19.4,59.1,1009.7,289.1,0.7,1.7,324.5,0.00,11.3,19.0,"21:47:20",1
"18/05/01","22:00",0.0,19.4,58.3,1010.0,277.8,0.8,1.3,293.5,0.00,11.0,18.9,"21:53:12",1
"18/05/01","22:10",0.0,19.8,55.1,1009.7,302.0,1.1,2.0,308.3,0.00,10.6,18.7,"22:01:36",1
"18/05/01","22:20",0.0,19.7,55.9,1010.2,310.7,1.3,3.1,335.1,0.00,10.7,18.6,"22:13:44",1
"18/05/01","22:30",0.0,19.3,57.8,1010.0,316.2,1.1,1.8,339.9,0.00,10.8,18.6,"22:26:40",1
"18/05/01","22:40",0.0,19.1,58.2,1009.7,274.8,1.1,1.6,297.1,0.00,10.7,18.6,"22:39:36",1
"18/05/01","22:50",0.0,19.1,60.2,1010.0,327.0,1.1,1.9,316.2,0.00,11.3,18.5,"22:40:40",1
"18/05/01","23:00",0.0,18.4,62.4,1010.0,273.8,0.8,1.3,292.1,0.00,11.1,18.3,"22:56:56",1
"18/05/01","23:10",0.0,18.2,65.2,1010.0,316.2,1.2,2.8,344.0,0.00,11.6,18.5,"23:09:28",1
"18/05/01","23:20",0.0,18.0,65.8,1010.0,326.1,1.1,1.7,333.5,0.00,11.6,18.3,"23:17:20",1
"18/05/01","23:30",0.0,17.6,67.7,1010.0,300.4,1.1,1.7,326.8,0.00,11.6,18.2,"23:25:36",1
"18/05/01","23:40",0.0,17.6,68.4,1010.0,326.2,1.7,2.5,339.2,0.00,11.8,18.2,"23:31:52",1
"18/05/01","23:50",0.0,17.4,69.3,1009.7,294.7,1.1,1.9,310.6,0.00,11.8,18.1,"23:42:40",1
"18/05/01","24:00",0.0,17.2,70.1,1010.0,296.3,1.0,1.4,326.8,0.00,11.7,18.0,"23:56:32",1
